Simultaneous Nadir Overpasses (SNOs) Predictions

Prediction of SNOs between NPP and PACE Satellite Orbit:

Table of predicted SNOs for the next 14.0 days since TLE Epoch: 7/6/2024
Index Date (NPP) Time (NPP) Lat,Lon (NPP) SZA (NPP ) Date (PACE) Time (PACE) Lat,Lon (PACE) SZA (PACE ) Distance(km) Time Diff (sec)
1 07/07/2024 04:22:48 -79.88,-103.21 120.30 07/07/2024 04:22:42 -79.88,-103.28 120.28 1.53 6
2 07/09/2024 07:58:37 80.01, 21.55 60.22 07/09/2024 07:59:36 80.01, 21.50 60.19 0.87 59
3 07/09/2024 08:49:14 -79.79,-168.97 120.20 07/09/2024 08:48:39 -79.79,-169.10 120.17 2.63 35
4 07/11/2024 12:25:05 79.98, -44.83 60.46 07/11/2024 12:25:34 79.98, -44.74 60.43 1.83 29
5 07/11/2024 13:15:42 -79.76, 124.65 119.96 07/11/2024 13:14:37 -79.76, 124.65 119.93 0.24 65
6 07/13/2024 16:51:32 79.93,-110.94 60.69 07/13/2024 16:51:31 79.93,-110.84 60.67 1.93 1
7 07/15/2024 20:27:17 -79.99, 14.58 118.87 07/15/2024 20:28:21 -79.99, 14.46 118.88 2.44 64
8 07/15/2024 21:17:57 79.82,-176.51 60.83 07/15/2024 21:17:26 79.82,-176.54 60.85 0.60 31
9 07/18/2024 00:53:44 -79.94, -51.59 118.58 07/18/2024 00:54:17 -79.94, -51.64 118.59 1.12 33



Historial Predications of SNOs between NPP and PACE
